Lapse_Rate
6.8 6.5 6.5 6.5 6.5 6.5 6.5 6.5 6.5 6.5 6.5 6.5 6.5 6.5 6.5 6.7 6.9 6.9 7.1 7.2 7.3 6.8 6.5 5.1 4.4 5.2 5.0 5.7 5.6 5.2 4.9 4.6 4.5 4.8 5.7 5.2 5.1 4.6 4.7 4.7 4.7 5.2 5.5 5.2
6.5 6.5 6.5 6.5 6.5 6.5 6.5 6.5 6.5 6.5 6.5 6.5 6.5 6.5 6.5 6.5 6.6 6.9 7.0 7.1 7.3 5.9 4.4 4.4 4.1 5.1 5.4 5.4 5.8 5.6 5.1 5.1 5.7 5.1 7.2 5.6 4.6 4.9 5.0 5.1 5.0 5.3 5.2 5.6
6.5 6.5 6.5 6.5 6.5 6.5 6.5 6.5 6.5 6.5 6.5 6.5 6.5 6.5 6.5 6.5 6.8 6.9 6.8 7.1 7.1 6.1 4.1 3.4 3.1 4.0 6.1 5.6 5.4 5.6 5.1 5.4 5.7 5.5 4.6 4.5 4.4 4.7 5.0 5.0 4.9 4.9 5.8 5.5
6.5 6.5 6.5 6.5 6.5 6.5 6.5 6.5 6.5 6.5 6.5 6.5 6.5 6.5 6.5 6.5 6.5 6.5 6.8 7.0 7.1 6.2 5.4 3.4 2.7 2.2 3.7 4.9 4.8 6.1 6.0 5.4 5.8 5.6 5.3 4.8 4.8 5.3 5.7 5.6 5.5 6.0 6.3 6.6
6.5 6.5 6.5 6.5 6.5 6.5 6.5 6.5 6.5 6.5 6.5 6.5 6.5 6.5 6.5 6.5 6.5 6.5 6.5 6.7 5.7 5.1 4.9 3.5 2.2 1.4 2.2 4.0 4.0 5.4 6.3 5.9 6.2 6.6 7.2 5.9 5.9 5.6 5.2 5.1 5.3 6.1 6.5 6.4
6.5 6.7 6.5 6.5 6.5 6.5 6.5 6.5 6.5 6.5 6.5 6.5 6.5 6.5 6.5 6.5 6.5 6.5 6.6 6.6 5.2 5.0 5.2 4.3 3.3 2.5 2.0 3.0 4.1 3.9 5.2 5.9 5.8 6.3 7.0 7.3 6.4 7.2 6.5 6.2 5.9 6.3 6.1 5.4
6.5 6.5 6.5 6.5 6.5 6.5 6.5 6.5 6.5 6.5 6.5 6.5 6.5 6.5 6.5 6.5 6.5 6.5 6.5 6.9 6.7 4.5 5.2 4.3 3.5 2.0 1.3 1.2 2.0 2.4 4.2 4.9 4.9 5.8 6.3 6.7 6.6 6.8 7.3 7.3 7.6 7.3 6.9 5.7
6.5 6.5 6.5 6.5 6.5 6.5 6.5 6.5 6.5 6.5 6.5 6.5 6.5 6.5 6.5 6.5 6.7 6.9 6.9 6.7 6.3 5.0 4.3 4.0 2.8 1.9 0.8 -0.0 0.8 1.1 2.3 4.1 4.8 4.9 5.7 6.4 6.4 6.5 6.8 6.4 6.4 6.1 6.4 6.3
6.5 6.5 6.5 6.5 6.5 6.5 6.5 6.5 6.5 6.5 6.5 6.5 6.5 6.5 6.5 6.5 6.5 6.5 6.7 6.7 7.0 6.0 5.3 4.8 3.6 2.1 1.2 0.5 0.4 0.5 1.4 3.0 3.9 4.5 5.3 5.3 5.8 6.4 6.7 6.3 6.0 6.4 6.1 5.8
6.5 6.5 6.5 6.5 6.5 6.5 6.5 6.5 6.5 6.5 6.5 6.5 6.5 6.5 6.5 6.5 6.5 6.5 6.5 6.7 6.8 5.2 4.9 5.5 4.4 1.8 1.5 1.5 1.2 1.3 1.9 2.0 2.6 3.5 4.0 4.5 4.5 5.2 5.9 6.0 5.7 5.6 5.7 5.6
6.5 6.5 6.5 6.5 6.5 6.5 6.5 6.5 6.5 6.5 6.5 6.5 6.5 6.5 6.5 6.5 6.5 6.5 6.5 6.7 5.3 5.2 4.4 4.8 5.8 4.8 1.8 1.6 1.4 1.4 2.0 2.4 2.6 2.9 3.2 3.7 3.6 3.9 4.4 4.4 4.4 5.0 5.5 5.5
6.5 6.5 6.5 6.5 6.5 6.5 6.5 6.5 6.5 6.5 6.5 6.5 6.5 6.5 6.5 6.5 6.5 6.5 6.6 5.5 4.4 3.8 4.4 4.2 4.3 3.9 2.7 1.8 1.8 1.0 1.8 2.4 1.9 1.8 2.1 2.4 3.1 3.0 2.5 2.0 2.2 3.3 4.1 4.5
6.5 6.5 6.5 6.5 6.5 6.5 6.5 6.5 6.5 6.5 6.5 6.5 6.5 6.5 6.5 6.5 6.5 6.7 6.6 5.7 4.5 3.2 3.5 3.2 4.0 3.3 3.4 2.7 2.2 2.2 1.5 1.6 2.6 2.7 2.2 2.1 2.4 3.2 2.8 3.3 3.7 3.9 3.6 3.6
6.5 6.5 6.5 6.5 6.5 6.5 6.5 6.5 6.5 6.5 6.5 6.5 6.5 6.5 6.5 6.5 6.5 6.5 6.7 4.2 4.1 4.1 3.6 3.8 3.0 2.8 2.5 2.0 1.6 2.0 1.8 2.3 2.3 2.7 2.8 2.3 2.1 2.1 2.4 3.0 3.5 3.9 3.5 3.4
6.5 6.5 6.5 6.5 6.5 6.5 6.5 6.5 6.5 6.5 6.5 6.5 6.5 6.5 6.5 6.5 6.5 6.5 6.5 5.0 5.0 4.1 3.8 3.2 2.8 1.9 2.0 1.3 0.6 0.2 1.3 2.3 2.6 2.6 3.1 2.7 2.4 2.8 3.1 3.2 3.2 3.5 4.1 4.1
6.5 6.5 6.5 6.5 6.5 6.5 6.5 6.5 6.5 6.5 6.5 6.5 6.5 6.5 6.5 6.6 6.6 6.3 6.3 6.4 6.4 4.4 3.7 4.1 2.7 2.3 1.2 0.3 0.2 -0.3 -0.7 -0.3 1.8 2.5 1.8 2.9 3.3 3.5 2.8 3.3 3.2 3.6 4.1 4.7
6.5 6.5 6.5 6.5 6.5 6.5 6.5 6.5 6.5 6.5 6.5 6.5 6.5 6.5 6.5 6.5 6.5 6.5 5.9 6.0 5.8 4.6 3.5 3.4 3.6 2.2 1.3 0.8 0.1 -0.3 -0.3 -0.7 -0.0 0.8 1.8 2.8 3.4 3.5 3.5 3.5 3.9 4.4 4.7 4.8
6.5 6.5 6.5 6.5 6.5 6.5 6.5 6.5 6.5 6.5 6.5 6.5 6.5 6.5 6.5 6.6 6.9 7.0 5.5 5.2 4.2 3.7 3.3 2.9 3.3 2.7 2.2 1.3 0.7 1.2 1.1 -0.8 -0.8 0.4 1.1 1.9 2.8 3.7 4.4 4.3 4.2 4.5 4.4 4.2
6.5 6.5 6.5 6.5 6.5 6.5 6.5 6.5 6.5 6.5 6.5 6.5 6.5 6.5 6.6 7.0 7.0 6.7 4.9 3.8 4.0 4.0 3.4 2.7 3.4 2.8 2.4 1.9 0.9 0.3 1.3 0.2 -0.0 0.0 0.4 1.1 2.2 3.9 2.8 3.1 2.4 1.7 2.2 1.4
6.5 6.5 6.5 6.5 6.5 6.5 6.5 6.5 6.7 6.5 6.5 6.5 6.6 6.5 6.5 6.8 6.5 6.5 6.3 3.8 3.5 3.9 3.3 2.4 1.7 0.7 1.1 0.2 -0.3 1.0 1.3 1.1 -0.0 0.3 1.5 1.7 1.4 -1.0 -0.2 -0.2 1.1 0.8 0.5 -0.1
6.5 6.5 6.5 6.5 6.5 6.5 6.5 6.5 6.8 6.5 6.5 6.7 6.8 6.8 6.7 6.5 6.8 6.8 4.9 4.8 4.2 2.8 1.0 0.7 0.5 0.0 0.2 -0.8 0.0 1.4 1.8 1.2 1.9 -0.8 -1.9 -0.4 1.2 1.0 1.8 0.9 0.0 -0.2 -1.2 -2.0
6.5 6.5 6.5 6.5 6.5 6.5 6.7 6.6 6.5 6.5 6.4 6.4 6.7 6.6 6.6 6.0 5.5 5.8 5.0 4.3 4.3 3.7 2.5 0.7 0.2 -1.5 -0.5 0.3 1.9 2.1 1.8 0.1 -0.3 0.3 0.5 0.7 1.8 1.1 0.6 0.1 -1.3 -2.0 -2.4 -3.5
6.5 6.5 6.5 6.5 6.5 6.6 6.8 6.7 7.0 6.4 6.7 7.1 7.3 7.5 7.4 6.9 6.4 5.8 5.5 4.3 4.2 3.8 3.2 2.8 1.9 0.7 0.9 1.4 1.5 0.6 0.2 1.0 -0.5 -0.5 -0.4 -0.1 -0.8 -0.9 -1.0 -1.5 -2.0 -2.5 -2.3 -2.7
6.5 6.6 6.5 6.5 6.5 6.5 6.8 6.8 7.5 6.9 7.2 7.3 6.8 6.6 7.1 7.3 7.2 6.0 5.7 5.4 5.6 3.6 2.8 3.0 3.0 2.0 1.1 2.4 2.0 1.4 0.1 -0.0 0.4 0.4 -0.2 -1.0 -1.8 -2.5 -2.1 -1.6 -1.1 -1.2 -1.5 -1.7
6.5 6.5 6.5 6.5 6.5 6.7 6.7 7.1 7.5 5.9 6.3 5.7 4.7 6.9 7.2 6.8 6.9 6.1 6.1 4.7 4.9 3.7 2.2 2.4 2.5 2.0 2.0 2.3 2.0 1.8 1.4 1.2 -0.7 -0.8 -1.3 -2.1 -2.7 -2.7 -3.3 -3.1 -1.6 -0.8 -0.6 0.4
6.6 6.5 6.5 6.5 6.7 6.7 6.9 7.5 7.4 6.4 7.3 7.2 5.4 3.7 3.6 2.1 3.3 4.3 2.2 1.9 1.6 3.5 0.6 2.2 0.3 0.1 0.7 0.3 0.7 1.3 1.0 0.3 -0.6 -1.2 -1.4 -1.6 -1.6 -1.8 -1.3 -1.4 -1.6 -0.8 -1.0 -0.8
Wind_Speed
6 7 13 20 16 5 7 6 7 4 4 2 10 8 15 8 7 10 11 12 13 13 9 12 11 10 9 8 8 9 10 10 9 8 8 6 5 6 6 6 12 15 15 10
4 14 16 10 10 13 8 7 10 12 4 8 10 13 15 9 7 8 10 13 14 13 11 13 13 11 11 10 10 10 11 11 11 8 10 4 5 5 8 9 9 12 15 15
17 6 11 13 10 14 16 18 14 13 6 4 6 9 6 3 4 5 8 9 13 17 16 15 14 13 12 13 13 13 12 12 11 10 8 7 7 6 5 9 5 8 13 16
12 13 9 11 15 15 14 10 13 13 5 7 2 8 6 8 13 7 9 11 12 15 16 16 17 16 15 14 13 14 14 12 12 11 9 14 7 8 8 12 8 9 19 18
9 9 20 7 12 14 12 8 12 11 9 6 9 6 2 3 9 14 9 9 14 17 19 20 21 19 17 15 14 14 14 14 13 15 15 11 10 8 9 10 13 11 13 21
7 2 8 15 6 18 5 4 2 2 2 6 10 7 7 6 12 7 4 6 9 16 19 18 18 17 17 15 15 14 16 16 15 15 16 18 14 13 12 14 13 12 10 9
10 7 3 3 12 6 6 4 3 2 4 7 2 8 11 9 13 10 11 13 6 14 18 19 20 19 18 19 18 15 18 17 17 18 18 16 15 14 16 15 12 13 10 7
12 8 15 9 6 7 13 13 5 7 5 2 4 5 5 7 10 10 8 12 8 12 16 20 22 20 20 21 21 18 19 18 18 18 19 16 16 10 9 11 10 9 10 10
8 8 5 7 7 11 6 9 11 1 1 2 3 4 10 9 9 6 8 6 7 9 14 19 20 20 20 20 22 22 20 19 19 19 17 17 15 15 13 14 11 9 10 9
2 2 4 9 5 6 8 10 5 3 6 9 5 4 6 4 8 5 7 5 7 3 10 14 18 20 18 18 18 19 20 22 21 20 18 16 17 16 14 12 15 14 12 12
1 1 1 5 5 11 7 7 2 4 4 6 5 4 7 12 9 6 7 7 6 2 9 11 13 15 17 17 18 18 19 20 19 20 19 18 17 17 15 15 15 16 14 14
5 2 3 5 2 3 2 8 10 6 5 2 2 7 4 10 8 7 8 8 6 4 5 11 13 15 16 18 19 20 19 19 19 17 18 18 16 17 18 20 21 17 17 15
6 2 2 2 2 4 3 2 4 3 2 15 9 4 4 5 8 10 9 9 6 6 2 8 12 15 16 17 18 19 19 19 17 18 17 17 18 17 18 17 15 16 16 16
1 2 3 1 2 3 5 10 10 6 5 7 11 9 9 11 7 11 9 11 10 7 4 6 10 13 15 17 17 18 18 18 18 18 18 18 18 19 18 17 15 15 16 16
2 5 5 6 11 7 8 7 10 10 10 10 6 13 9 13 13 13 10 10 10 9 8 9 10 12 14 15 16 17 17 17 18 19 19 21 19 17 17 17 17 17 17 16
7 1 5 5 10 11 8 10 17 15 10 13 12 14 12 15 10 7 13 13 13 11 11 11 11 11 14 15 16 15 17 18 17 18 20 18 17 17 18 16 16 17 17 17
5 2 2 3 5 7 6 9 8 2 5 4 6 9 10 13 12 10 13 12 12 11 11 11 12 12 13 14 14 17 17 16 18 18 17 17 17 17 17 17 17 16 16 14
5 3 2 1 2 7 3 4 5 6 9 9 7 9 12 16 16 16 9 9 9 11 13 11 11 10 10 12 15 13 14 16 17 17 17 17 16 16 16 16 16 14 12 13
13 5 2 3 6 8 9 7 4 6 8 7 4 10 13 14 11 12 7 7 12 10 8 9 10 11 8 11 12 13 13 15 16 16 15 15 14 14 11 12 9 5 6 5
13 10 3 3 3 5 3 2 2 1 6 5 5 7 10 14 8 7 14 10 11 12 10 11 10 9 10 9 11 14 15 16 16 14 13 12 12 10 9 8 8 4 4 5
6 3 9 4 4 6 9 8 3 2 5 7 3 7 3 3 4 8 10 10 10 9 7 8 7 6 6 7 10 12 11 11 7 10 11 10 9 9 8 7 5 7 8 8
7 6 5 5 4 8 0 2 1 6 4 7 12 9 6 7 10 5 6 9 10 11 9 7 3 5 1 6 9 10 9 7 11 10 9 9 8 6 7 10 8 9 9 10
4 6 4 8 6 2 3 4 8 7 12 13 16 20 16 14 12 9 6 6 7 9 6 6 3 4 1 3 9 11 8 10 10 10 11 11 10 9 8 9 9 7 8 8
3 3 3 0 3 7 5 3 11 13 14 16 16 19 18 16 14 13 8 7 8 7 8 6 4 4 5 5 6 9 10 11 12 10 9 10 11 11 9 6 5 6 6 7
2 3 3 5 7 11 5 11 15 17 14 17 20 15 12 11 12 8 8 6 7 6 8 5 7 8 8 7 6 6 9 10 13 9 9 9 9 10 10 9 6 6 5 4
2 3 3 5 1 3 8 13 13 14 14 15 15 15 13 13 11 12 10 11 10 9 10 7 9 12 8 10 10 8 6 10 12 10 7 6 7 7 8 10 11 20 18 23
Wind_Direction
191 189 203 205 199 191 202 227 237 238 210 254 264 268 282 285 225 240 230 202 196 213 214 190 186 183 184 182 175 163 154 150 144 150 147 140 137 135 141 133 139 146 148 169
154 217 220 173 192 216 216 224 242 288 274 226 277 291 293 271 251 243 235 219 198 189 196 187 180 184 189 184 185 169 167 164 160 159 169 153 140 143 159 157 147 151 152 166
209 198 192 186 192 209 229 232 243 255 331 254 274 276 263 295 262 248 234 225 208 191 189 189 183 187 191 193 189 181 171 173 167 149 126 112 110 121 146 169 159 165 183 161
220 222 179 201 203 198 234 217 237 255 274 275 336 289 274 274 273 247 252 212 201 198 193 187 186 188 195 199 186 181 172 175 173 166 145 151 154 156 166 170 171 176 184 185
208 201 212 195 215 183 235 172 208 238 247 281 246 262 259 285 263 266 261 228 199 193 193 188 191 188 192 194 191 185 177 177 173 180 178 166 162 160 156 160 176 189 183 188
203 190 192 215 189 183 204 132 109 97 203 245 235 222 274 232 239 256 258 248 199 190 196 192 189 181 188 193 194 185 182 182 179 181 187 189 180 174 168 173 182 188 189 187
213 213 193 157 192 191 207 147 244 231 212 241 223 197 260 255 250 253 270 286 239 183 188 185 186 184 183 189 192 191 189 188 185 185 189 191 185 183 179 181 183 183 192 196
200 208 192 185 182 185 200 196 191 223 220 232 131 220 238 264 278 264 268 274 269 186 188 192 188 187 186 187 189 190 191 192 191 188 190 194 197 194 194 190 186 190 198 199
181 227 188 206 185 162 176 198 214 242 89 311 221 253 281 284 288 293 282 290 281 212 195 196 190 190 190 188 190 189 188 193 194 194 192 196 198 203 205 208 207 207 207 202
199 207 180 194 171 197 191 158 163 209 232 244 210 232 226 280 289 311 340 336 314 185 189 193 196 191 192 195 191 192 192 192 193 193 196 201 202 204 207 209 215 215 218 219
173 96 222 144 183 186 187 213 171 192 199 249 262 233 218 236 252 253 296 315 307 283 191 194 202 202 189 189 192 194 198 196 195 196 197 200 201 203 204 210 215 217 218 217
1 130 237 248 227 112 173 218 223 225 211 239 277 240 249 234 240 236 278 300 312 273 193 189 190 189 188 191 193 195 196 201 201 198 199 205 207 203 203 209 213 211 216 215
346 24 159 344 356 28 72 286 228 203 226 249 251 253 327 272 262 256 270 284 289 294 212 179 188 193 194 195 196 197 197 201 202 202 204 208 209 213 220 224 227 220 219 219
233 60 32 188 59 348 307 319 309 279 254 257 244 263 278 289 283 274 261 257 275 267 247 205 200 204 199 198 197 198 198 197 196 199 205 208 209 212 216 219 217 214 215 216
297 210 173 267 293 281 268 283 302 280 259 250 255 257 248 249 248 245 264 277 279 273 235 226 216 214 210 202 199 198 199 197 195 196 203 210 209 210 211 211 211 208 212 215
354 282 186 226 225 248 267 281 289 266 261 267 264 266 249 256 265 262 266 269 261 251 255 253 217 218 209 201 201 198 193 194 194 202 208 206 207 206 204 207 206 206 210 212
309 330 161 229 226 242 270 245 221 232 228 235 296 305 288 281 271 252 257 261 260 261 248 242 248 212 212 207 200 198 195 184 194 204 205 207 205 207 207 203 205 207 209 207
250 330 307 216 288 235 258 247 215 239 263 244 259 312 304 282 271 277 256 251 251 251 264 255 241 248 227 211 199 199 191 184 192 202 205 204 204 209 208 205 206 204 206 206
205 199 254 224 216 303 293 265 218 207 289 21 356 358 346 323 277 272 259 272 263 272 266 272 273 254 247 211 197 186 192 188 191 201 200 200 200 207 189 194 182 149 156 159
181 191 192 199 203 237 250 125 19 54 263 8 343 314 325 1 34 335 329 323 310 305 297 288 278 264 242 217 178 186 193 196 197 194 195 182 169 147 149 143 153 143 142 129
171 177 215 231 260 276 259 291 336 192 319 304 249 277 282 338 311 297 330 342 322 301 310 313 308 286 263 183 176 183 181 190 180 136 126 127 136 145 145 137 128 128 118 108
176 195 189 211 240 267 107 136 344 334 282 271 308 300 287 285 271 286 341 354 344 350 348 348 348 357 294 163 163 154 150 115 122 125 125 123 122 119 125 125 119 118 121 117
195 201 191 197 206 303 17 15 303 284 290 305 308 302 299 298 291 295 283 328 344 1 6 12 27 80 63 148 137 125 127 126 118 123 120 113 104 102 110 121 120 115 123 126
242 181 226 319 252 263 288 289 15 337 318 312 306 289 291 292 298 309 305 320 341 29 21 25 29 68 67 42 79 116 121 121 110 103 105 106 108 99 92 91 100 119 128 127
222 156 232 262 289 326 297 11 358 339 337 343 336 319 313 322 314 331 315 8 2 26 50 40 58 61 46 43 74 110 121 119 105 106 109 106 96 100 96 75 79 92 63 104
198 229 241 282 19 310 305 326 348 341 341 349 354 357 11 23 2 354 32 21 20 358 66 43 70 70 35 60 34 33 70 107 116 116 105 103 106 108 103 102 84 70 86 88